^^
Station Historical Data
Daily Summary for April 17, 2019 Units:  English    Metric   Both
« Previous Day
Next Day »
Daily Weekly Monthly Yearly Custom
  High: Low: Average:
Temperature: 47.2 °F 38.9 °F 42.4 °F
Dew Point: 42.7 °F 36.9 °F 40.2 °F
Humidity: 100% 82% 92%
Wind Speed: 15.0mph 0.0mph 4.8mph
Wind Gust: 18.0mph - -
Wind- - SSE
Pressure: 29.85 in 29.75 in -
Precipitation: 0.31 in    
Historical Graphs
 
 
Tabular Data for April 17, 2019
Time Temperature Dew Point Pressure Wind Wind Speed Wind Gust Humidity Rainfall Rate (Hourly) solar Conditions
00:04 43.8 °F 40.8 °F 29.85 in ENE 10.0 mph 16.0 mph 89% 0.06 in 0.00 W/m2
00:10 43.7 °F 40.7 °F 29.85 in ENE 10.0 mph 16.0 mph 89% 0.06 in 0.00 W/m2
00:15 43.6 °F 40.6 °F 29.85 in ENE 8.0 mph 12.0 mph 89% 0.06 in 0.00 W/m2
00:20 43.5 °F 40.5 °F 29.85 in NE 8.0 mph 15.0 mph 89% 0.07 in 0.00 W/m2
00:25 43.5 °F 40.5 °F 29.85 in East 9.0 mph 15.0 mph 89% 0.07 in 0.00 W/m2
00:30 43.4 °F 40.7 °F 29.85 in ENE 10.0 mph 13.0 mph 90% 0.06 in 0.00 W/m2
00:35 43.3 °F 40.6 °F 29.85 in East 8.0 mph 13.0 mph 90% 0.07 in 0.00 W/m2
00:40 43.1 °F 40.4 °F 29.85 in ENE 9.0 mph 13.0 mph 90% 0.07 in 0.00 W/m2
00:45 43.0 °F 40.3 °F 29.85 in ENE 8.0 mph 13.0 mph 90% 0.06 in 0.00 W/m2
00:50 42.9 °F 40.5 °F 29.85 in ENE 8.0 mph 13.0 mph 91% 0.07 in 0.00 W/m2
00:55 42.8 °F 40.4 °F 29.84 in ENE 9.0 mph 13.0 mph 91% 0.07 in 0.00 W/m2
01:00 42.8 °F 40.4 °F 29.84 in East 8.0 mph 13.0 mph 91% 0.07 in 0.00 W/m2
01:04 42.7 °F 40.3 °F 29.84 in ENE 8.0 mph 13.0 mph 91% 0.07 in 0.00 W/m2
01:10 42.7 °F 40.5 °F 29.84 in East 10.0 mph 12.0 mph 92% 0.06 in 0.00 W/m2
01:15 42.6 °F 40.4 °F 29.84 in ENE 8.0 mph 11.0 mph 92% 0.05 in 0.00 W/m2
01:19 42.6 °F 40.4 °F 29.84 in ENE 5.0 mph 11.0 mph 92% 0.05 in 0.00 W/m2
01:24 42.5 °F 40.3 °F 29.84 in ENE 5.0 mph 11.0 mph 92% 0.04 in 0.00 W/m2
01:30 42.5 °F 40.3 °F 29.84 in East 7.0 mph 12.0 mph 92% 0.05 in 0.00 W/m2
01:35 42.4 °F 40.5 °F 29.84 in ENE 8.0 mph 14.0 mph 93% 0.04 in 0.00 W/m2
01:39 42.5 °F 40.6 °F 29.84 in ENE 8.0 mph 14.0 mph 93% 0.03 in 0.00 W/m2
01:44 42.5 °F 40.6 °F 29.84 in ENE 7.0 mph 14.0 mph 93% 0.03 in 0.00 W/m2
01:49 42.5 °F 40.6 °F 29.84 in East 6.0 mph 12.0 mph 93% 0.02 in 0.00 W/m2
01:54 42.5 °F 40.6 °F 29.84 in ENE 9.0 mph 14.0 mph 93% 0.02 in 0.00 W/m2
01:59 42.5 °F 40.6 °F 29.84 in ENE 8.0 mph 14.0 mph 93% 0.03 in 0.00 W/m2
02:04 42.4 °F 40.5 °F 29.83 in East 9.0 mph 14.0 mph 93% 0.02 in 0.00 W/m2
02:09 42.3 °F 40.4 °F 29.83 in East 15.0 mph 15.0 mph 93% 0.03 in 0.00 W/m2
02:14 42.3 °F 40.4 °F 29.83 in East 11.0 mph 15.0 mph 93% 0.04 in 0.00 W/m2
02:20 42.3 °F 40.4 °F 29.83 in East 11.0 mph 15.0 mph 93% 0.04 in 0.00 W/m2
02:25 42.3 °F 40.4 °F 29.83 in ENE 9.0 mph 15.0 mph 93% 0.04 in 0.00 W/m2
02:30 42.2 °F 40.3 °F 29.83 in ENE 9.0 mph 14.0 mph 93% 0.04 in 0.00 W/m2
02:35 42.1 °F 40.2 °F 29.83 in East 10.0 mph 14.0 mph 93% 0.04 in 0.00 W/m2
02:40 42.1 °F 40.2 °F 29.83 in ENE 12.0 mph 15.0 mph 93% 0.04 in 0.00 W/m2
02:45 42.0 °F 40.1 °F 29.83 in ENE 5.0 mph 15.0 mph 93% 0.05 in 0.00 W/m2
02:50 42.0 °F 40.1 °F 29.82 in ENE 8.0 mph 12.0 mph 93% 0.05 in 0.00 W/m2
02:55 41.9 °F 40.0 °F 29.82 in ENE 7.0 mph 14.0 mph 93% 0.04 in 0.00 W/m2
03:00 41.9 °F 40.0 °F 29.82 in ENE 7.0 mph 14.0 mph 93% 0.04 in 0.00 W/m2
03:05 41.9 °F 40.0 °F 29.82 in ENE 8.0 mph 14.0 mph 93% 0.04 in 0.00 W/m2
03:09 41.8 °F 39.9 °F 29.82 in ENE 10.0 mph 14.0 mph 93% 0.03 in 0.00 W/m2
03:15 41.8 °F 39.9 °F 29.81 in ENE 8.0 mph 14.0 mph 93% 0.02 in 0.00 W/m2
03:20 41.7 °F 39.8 °F 29.82 in ENE 7.0 mph 13.0 mph 93% 0.02 in 0.00 W/m2
03:25 41.6 °F 39.7 °F 29.81 in ENE 8.0 mph 14.0 mph 93% 0.01 in 0.00 W/m2
03:29 41.5 °F 39.6 °F 29.81 in ENE 10.0 mph 14.0 mph 93% 0.02 in 0.00 W/m2
03:35 41.5 °F 39.6 °F 29.81 in ENE 9.0 mph 15.0 mph 93% 0.02 in 0.00 W/m2
03:39 41.4 °F 39.5 °F 29.81 in ENE 9.0 mph 15.0 mph 93% 0.03 in 0.00 W/m2
03:44 41.4 °F 39.5 °F 29.80 in ENE 10.0 mph 16.0 mph 93% 0.02 in 0.00 W/m2
03:49 41.3 °F 39.4 °F 29.81 in ENE 7.0 mph 16.0 mph 93% 0.02 in 0.00 W/m2
03:54 41.3 °F 39.4 °F 29.80 in East 11.0 mph 18.0 mph 93% 0.02 in 0.00 W/m2
03:59 41.2 °F 39.3 °F 29.80 in ENE 12.0 mph 18.0 mph 93% 0.03 in 0.00 W/m2
04:04 41.2 °F 39.3 °F 29.80 in ENE 12.0 mph 16.0 mph 93% 0.03 in 0.00 W/m2
04:09 41.2 °F 39.3 °F 29.80 in ENE 12.0 mph 16.0 mph 93% 0.04 in 0.00 W/m2
04:14 41.2 °F 39.3 °F 29.80 in East 9.0 mph 11.0 mph 93% 0.04 in 0.00 W/m2
04:19 41.2 °F 39.3 °F 29.80 in ENE 7.0 mph 13.0 mph 93% 0.04 in 0.00 W/m2
04:24 41.2 °F 39.3 °F 29.80 in East 8.0 mph 13.0 mph 93% 0.04 in 0.00 W/m2
04:30 41.2 °F 39.3 °F 29.80 in NE 9.0 mph 14.0 mph 93% 0.04 in 0.00 W/m2
04:35 41.2 °F 39.3 °F 29.80 in ENE 11.0 mph 14.0 mph 93% 0.04 in 0.00 W/m2
04:40 41.2 °F 39.3 °F 29.80 in ENE 7.0 mph 15.0 mph 93% 0.03 in 0.00 W/m2
04:45 41.2 °F 39.3 °F 29.80 in ENE 10.0 mph 15.0 mph 93% 0.04 in 0.00 W/m2
04:50 41.1 °F 39.5 °F 29.80 in ENE 7.0 mph 14.0 mph 94% 0.04 in 0.00 W/m2
04:55 41.2 °F 39.6 °F 29.81 in East 10.0 mph 14.0 mph 94% 0.04 in 0.00 W/m2
05:00 41.1 °F 39.5 °F 29.81 in ENE 12.0 mph 14.0 mph 94% 0.03 in 0.00 W/m2
05:05 41.1 °F 39.5 °F 29.80 in ENE 5.0 mph 14.0 mph 94% 0.02 in 0.00 W/m2
05:10 41.1 °F 39.5 °F 29.80 in East 7.0 mph 13.0 mph 94% 0.02 in 0.00 W/m2
05:15 41.1 °F 39.5 °F 29.80 in East 9.0 mph 13.0 mph 94% 0.03 in 0.00 W/m2
05:19 41.1 °F 39.5 °F 29.80 in East 9.0 mph 13.0 mph 94% 0.03 in 0.00 W/m2
05:25 41.1 °F 39.5 °F 29.80 in East 10.0 mph 14.0 mph 94% 0.03 in 0.00 W/m2
05:30 41.1 °F 39.5 °F 29.80 in East 10.0 mph 14.0 mph 94% 0.02 in 0.00 W/m2
05:35 41.1 °F 39.5 °F 29.80 in ENE 8.0 mph 14.0 mph 94% 0.03 in 0.00 W/m2
05:39 41.1 °F 39.5 °F 29.79 in East 9.0 mph 14.0 mph 94% 0.03 in 0.00 W/m2
05:45 41.0 °F 39.4 °F 29.80 in East 9.0 mph 14.0 mph 94% 0.02 in 0.00 W/m2
05:50 41.1 °F 39.5 °F 29.79 in East 9.0 mph 14.0 mph 94% 0.02 in 0.00 W/m2
05:54 41.0 °F 39.4 °F 29.79 in East 9.0 mph 14.0 mph 94% 0.02 in 0.00 W/m2
05:59 41.0 °F 39.4 °F 29.79 in East 9.0 mph 14.0 mph 94% 0.02 in 0.00 W/m2
06:04 41.0 °F 39.4 °F 29.79 in East 8.0 mph 13.0 mph 94% 0.03 in 0.00 W/m2
06:09 41.0 °F 39.4 °F 29.79 in ENE 13.0 mph 15.0 mph 94% 0.03 in 0.00 W/m2
06:14 41.0 °F 39.4 °F 29.79 in East 9.0 mph 15.0 mph 94% 0.02 in 0.00 W/m2
06:19 41.0 °F 39.4 °F 29.79 in East 7.0 mph 14.0 mph 94% 0.03 in 0.00 W/m2
06:24 41.0 °F 39.4 °F 29.79 in East 8.0 mph 14.0 mph 94% 0.03 in 0.00 W/m2
06:29 40.9 °F 39.6 °F 29.78 in East 10.0 mph 14.0 mph 95% 0.03 in 0.00 W/m2
06:34 40.9 °F 39.6 °F 29.78 in East 7.0 mph 14.0 mph 95% 0.02 in 0.00 W/m2
06:40 40.8 °F 39.5 °F 29.78 in East 9.0 mph 15.0 mph 95% 0.02 in 0.00 W/m2
06:45 40.8 °F 39.5 °F 29.78 in East 8.0 mph 15.0 mph 95% 0.02 in 0.00 W/m2
06:50 40.8 °F 39.5 °F 29.78 in East 7.0 mph 13.0 mph 95% 0.02 in 0.00 W/m2
06:55 40.7 °F 39.4 °F 29.78 in ENE 10.0 mph 13.0 mph 95% 0.02 in 0.00 W/m2
07:00 40.7 °F 39.4 °F 29.78 in East 13.0 mph 16.0 mph 95% 0.01 in 0.00 W/m2
07:05 40.7 °F 39.4 °F 29.77 in ESE 8.0 mph 16.0 mph 95% 0.01 in 0.00 W/m2
07:10 40.7 °F 39.4 °F 29.78 in East 8.0 mph 14.0 mph 95% 0.01 in 0.00 W/m2
07:15 40.6 °F 39.3 °F 29.77 in ENE 5.0 mph 11.0 mph 95% 0.02 in 0.00 W/m2
07:19 40.6 °F 39.3 °F 29.77 in East 9.0 mph 13.0 mph 95% 0.01 in 0.00 W/m2
07:25 40.6 °F 39.3 °F 29.77 in East 9.0 mph 13.0 mph 95% 0.01 in 5.00 W/m2
07:29 40.6 °F 39.3 °F 29.77 in East 13.0 mph 15.0 mph 95% 0.01 in 5.00 W/m2
07:34 40.6 °F 39.3 °F 29.78 in East 8.0 mph 15.0 mph 95% 0.01 in 5.00 W/m2
07:40 40.6 °F 39.3 °F 29.77 in ESE 8.0 mph 14.0 mph 95% 0.01 in 5.00 W/m2
07:44 40.6 °F 39.3 °F 29.77 in East 8.0 mph 14.0 mph 95% 0.01 in 5.00 W/m2
07:49 40.5 °F 39.2 °F 29.77 in East 6.0 mph 11.0 mph 95% 0.01 in 9.00 W/m2
07:54 40.5 °F 39.2 °F 29.77 in East 5.0 mph 11.0 mph 95% 0.01 in 14.00 W/m2
07:59 40.5 °F 39.2 °F 29.77 in East 7.0 mph 9.0 mph 95% 0.01 in 16.00 W/m2
08:04 40.5 °F 39.2 °F 29.77 in ENE 3.0 mph 9.0 mph 95% 0.01 in 16.00 W/m2
08:09 40.5 °F 39.2 °F 29.77 in East 7.0 mph 9.0 mph 95% 0.01 in 16.00 W/m2
08:14 40.5 °F 39.2 °F 29.77 in East 8.0 mph 9.0 mph 95% 0.00 in 12.00 W/m2
08:19 40.5 °F 39.2 °F 29.78 in East 7.0 mph 9.0 mph 95% 0.00 in 11.00 W/m2
08:24 40.5 °F 39.2 °F 29.78 in ENE 4.0 mph 9.0 mph 95% 0.00 in 18.00 W/m2
08:29 40.5 °F 39.2 °F 29.78 in East 10.0 mph 10.0 mph 95% 0.00 in 23.00 W/m2
08:35 40.5 °F 39.2 °F 29.77 in East 7.0 mph 11.0 mph 95% 0.00 in 28.00 W/m2
08:40 40.6 °F 39.3 °F 29.78 in East 5.0 mph 11.0 mph 95% 0.00 in 32.00 W/m2
08:45 40.6 °F 39.3 °F 29.78 in East 8.0 mph 9.0 mph 95% 0.00 in 30.00 W/m2
08:50 40.6 °F 39.3 °F 29.78 in East 7.0 mph 8.0 mph 95% 0.01 in 26.00 W/m2
08:55 40.6 °F 39.3 °F 29.78 in East 6.0 mph 8.0 mph 95% 0.01 in 26.00 W/m2
09:00 40.6 °F 39.3 °F 29.78 in ENE 5.0 mph 8.0 mph 95% 0.01 in 30.00 W/m2
09:05 40.6 °F 39.3 °F 29.78 in East 5.0 mph 7.0 mph 95% 0.01 in 37.00 W/m2
09:10 40.7 °F 39.4 °F 29.78 in East 3.0 mph 8.0 mph 95% 0.01 in 44.00 W/m2
09:15 40.7 °F 39.4 °F 29.78 in East 6.0 mph 8.0 mph 95% 0.01 in 49.00 W/m2
09:20 40.8 °F 39.5 °F 29.78 in East 7.0 mph 9.0 mph 95% 0.01 in 69.00 W/m2
09:25 40.9 °F 39.6 °F 29.77 in East 3.0 mph 9.0 mph 95% 0.01 in 79.00 W/m2
09:30 41.0 °F 41.0 °F 29.77 in East 5.0 mph 8.0 mph 100% 0.01 in 76.00 W/m2
09:35 41.1 °F 39.8 °F 29.77 in East 7.0 mph 8.0 mph 95% 0.01 in 77.00 W/m2
09:39 41.0 °F 39.7 °F 29.77 in East 5.0 mph 8.0 mph 95% 0.01 in 72.00 W/m2
09:44 41.0 °F 39.7 °F 29.77 in East 6.0 mph 7.0 mph 95% 0.01 in 77.00 W/m2
09:49 41.2 °F 39.9 °F 29.77 in East 5.0 mph 7.0 mph 95% 0.00 in 102.00 W/m2
09:54 41.3 °F 40.0 °F 29.77 in ESE 4.0 mph 8.0 mph 95% 0.00 in 84.00 W/m2
09:59 41.4 °F 40.1 °F 29.77 in East 7.0 mph 9.0 mph 95% 0.00 in 81.00 W/m2
10:04 41.4 °F 40.1 °F 29.77 in ENE 7.0 mph 9.0 mph 95% 0.00 in 69.00 W/m2
10:09 41.4 °F 40.1 °F 29.77 in ESE 5.0 mph 9.0 mph 95% 0.00 in 72.00 W/m2
10:14 41.3 °F 40.0 °F 29.77 in ESE 3.0 mph 9.0 mph 95% 0.00 in 56.00 W/m2
10:19 41.3 °F 40.0 °F 29.77 in East 6.0 mph 9.0 mph 95% 0.00 in 74.00 W/m2
10:24 41.3 °F 40.0 °F 29.77 in ESE 8.0 mph 10.0 mph 95% 0.00 in 90.00 W/m2
10:29 41.4 °F 40.1 °F 29.76 in East 11.0 mph 13.0 mph 95% 0.00 in 114.00 W/m2
10:34 41.5 °F 40.2 °F 29.76 in ESE 9.0 mph 13.0 mph 95% 0.00 in 98.00 W/m2
10:40 41.6 °F 40.3 °F 29.76 in ESE 9.0 mph 11.0 mph 95% 0.00 in 128.00 W/m2
10:45 41.8 °F 40.5 °F 29.77 in ESE 9.0 mph 9.0 mph 95% 0.00 in 98.00 W/m2
10:50 41.7 °F 40.4 °F 29.77 in East 6.0 mph 10.0 mph 95% 0.00 in 70.00 W/m2
10:55 41.7 °F 40.4 °F 29.77 in ESE 6.0 mph 10.0 mph 95% 0.00 in 67.00 W/m2
11:00 41.7 °F 40.4 °F 29.77 in ESE 5.0 mph 8.0 mph 95% 0.00 in 74.00 W/m2
11:05 41.6 °F 40.3 °F 29.77 in East 7.0 mph 9.0 mph 95% 0.00 in 79.00 W/m2
11:10 41.8 °F 40.5 °F 29.77 in ESE 5.0 mph 9.0 mph 95% 0.00 in 81.00 W/m2
11:15 41.9 °F 40.6 °F 29.77 in East 6.0 mph 8.0 mph 95% 0.00 in 100.00 W/m2
11:19 41.9 °F 40.6 °F 29.77 in SE 4.0 mph 8.0 mph 95% 0.00 in 102.00 W/m2
11:24 41.9 °F 40.6 °F 29.77 in ESE 5.0 mph 8.0 mph 95% 0.00 in 95.00 W/m2
11:29 42.0 °F 40.7 °F 29.78 in ESE 3.0 mph 8.0 mph 95% 0.00 in 76.00 W/m2
11:34 42.1 °F 40.8 °F 29.78 in ESE 4.0 mph 7.0 mph 95% 0.00 in 90.00 W/m2
11:40 42.2 °F 40.6 °F 29.77 in East 6.0 mph 7.0 mph 94% 0.00 in 95.00 W/m2
11:44 42.2 °F 40.6 °F 29.77 in ESE 4.0 mph 7.0 mph 94% 0.01 in 83.00 W/m2
11:49 42.2 °F 40.6 °F 29.77 in ESE 5.0 mph 7.0 mph 94% 0.01 in 95.00 W/m2
11:54 42.2 °F 40.6 °F 29.77 in ESE 3.0 mph 8.0 mph 94% 0.01 in 90.00 W/m2
11:59 42.2 °F 40.6 °F 29.78 in ESE 2.0 mph 8.0 mph 94% 0.01 in 104.00 W/m2
12:04 42.3 °F 40.7 °F 29.78 in SE 4.0 mph 7.0 mph 94% 0.01 in 100.00 W/m2
12:09 42.2 °F 40.6 °F 29.78 in ESE 3.0 mph 7.0 mph 94% 0.01 in 72.00 W/m2
12:14 42.2 °F 40.6 °F 29.78 in ESE 4.0 mph 7.0 mph 94% 0.02 in 77.00 W/m2
12:19 42.2 °F 40.6 °F 29.78 in SE 3.0 mph 6.0 mph 94% 0.02 in 121.00 W/m2
12:24 42.3 °F 40.7 °F 29.78 in SE 4.0 mph 6.0 mph 94% 0.02 in 84.00 W/m2
12:29 42.4 °F 40.8 °F 29.78 in SSE 2.0 mph 6.0 mph 94% 0.03 in 98.00 W/m2
12:34 42.5 °F 41.2 °F 29.78 in SE 4.0 mph 5.0 mph 95% 0.03 in 118.00 W/m2
12:40 42.4 °F 40.8 °F 29.78 in SE 2.0 mph 5.0 mph 94% 0.03 in 123.00 W/m2
12:45 42.5 °F 40.9 °F 29.78 in SSE 4.0 mph 5.0 mph 94% 0.02 in 149.00 W/m2
12:50 42.5 °F 41.2 °F 29.78 in SSE 4.0 mph 5.0 mph 95% 0.03 in 163.00 W/m2
12:55 42.5 °F 41.2 °F 29.78 in SSE 2.0 mph 5.0 mph 95% 0.03 in 158.00 W/m2
13:00 42.5 °F 41.2 °F 29.78 in SE 2.0 mph 5.0 mph 95% 0.03 in 186.00 W/m2
13:05 42.7 °F 41.4 °F 29.77 in SSE 2.0 mph 5.0 mph 95% 0.03 in 227.00 W/m2
13:10 42.9 °F 41.3 °F 29.78 in SSE 2.0 mph 4.0 mph 94% 0.03 in 202.00 W/m2
13:14 42.9 °F 41.3 °F 29.77 in SSE 2.0 mph 3.0 mph 94% 0.02 in 239.00 W/m2
13:20 43.2 °F 41.9 °F 29.77 in SSE 1.0 mph 3.0 mph 95% 0.02 in 271.00 W/m2
13:24 43.3 °F 41.7 °F 29.77 in SSE 1.0 mph 2.0 mph 94% 0.03 in 283.00 W/m2
13:29 43.3 °F 41.7 °F 29.77 in Calm   2.0 mph 94% 0.02 in 281.00 W/m2
13:34 43.5 °F 41.9 °F 29.77 in SSE 1.0 mph 2.0 mph 94% 0.02 in 225.00 W/m2
13:40 43.8 °F 42.2 °F 29.77 in Calm   2.0 mph 94% 0.02 in 204.00 W/m2
13:44 43.8 °F 41.9 °F 29.77 in WSW 1.0 mph 2.0 mph 93% 0.02 in 183.00 W/m2
13:49 43.8 °F 41.9 °F 29.77 in Calm   2.0 mph 93% 0.01 in 135.00 W/m2
13:54 43.7 °F 41.5 °F 29.77 in West 1.0 mph 4.0 mph 92% 0.01 in 91.00 W/m2
13:59 43.6 °F 41.4 °F 29.77 in WNW 1.0 mph 4.0 mph 92% 0.01 in 98.00 W/m2
14:04 43.6 °F 41.4 °F 29.77 in West 4.0 mph 5.0 mph 92% 0.01 in 100.00 W/m2
14:09 43.7 °F 41.8 °F 29.77 in West 6.0 mph 8.0 mph 93% 0.01 in 97.00 W/m2
14:14 43.5 °F 41.6 °F 29.77 in West 5.0 mph 8.0 mph 93% 0.01 in 95.00 W/m2
14:19 43.3 °F 41.4 °F 29.77 in West 4.0 mph 7.0 mph 93% 0.01 in 95.00 W/m2
14:24 43.4 °F 41.5 °F 29.76 in WNW 3.0 mph 5.0 mph 93% 0.00 in 118.00 W/m2
14:29 43.5 °F 41.6 °F 29.76 in West 4.0 mph 6.0 mph 93% 0.00 in 139.00 W/m2
14:34 43.4 °F 41.2 °F 29.76 in WNW 3.0 mph 6.0 mph 92% 0.00 in 130.00 W/m2
14:39 43.3 °F 41.1 °F 29.76 in WNW 1.0 mph 5.0 mph 92% 0.00 in 174.00 W/m2
14:44 43.6 °F 41.4 °F 29.76 in WNW 1.0 mph 4.0 mph 92% 0.00 in 204.00 W/m2
14:50 44.0 °F 41.8 °F 29.76 in WNW 1.0 mph 4.0 mph 92% 0.00 in 211.00 W/m2
14:55 44.2 °F 42.0 °F 29.76 in WNW 2.0 mph 4.0 mph 92% 0.00 in 192.00 W/m2
15:00 44.1 °F 41.4 °F 29.76 in WNW 4.0 mph 4.0 mph 90% 0.00 in 181.00 W/m2
15:05 44.3 °F 41.8 °F 29.76 in WNW 1.0 mph 4.0 mph 91% 0.00 in 174.00 W/m2
15:10 44.5 °F 41.7 °F 29.76 in WNW 1.0 mph 4.0 mph 90% 0.00 in 171.00 W/m2
15:15 44.3 °F 41.3 °F 29.76 in WNW 2.0 mph 3.0 mph 89% 0.00 in 162.00 W/m2
15:19 44.4 °F 41.4 °F 29.76 in WNW 1.0 mph 3.0 mph 89% 0.00 in 141.00 W/m2
15:25 44.4 °F 41.4 °F 29.76 in WNW 1.0 mph 3.0 mph 89% 0.00 in 130.00 W/m2
15:29 44.3 °F 41.3 °F 29.76 in WNW 3.0 mph 3.0 mph 89% 0.00 in 132.00 W/m2
15:34 44.2 °F 40.6 °F 29.76 in WNW 1.0 mph 3.0 mph 87% 0.00 in 128.00 W/m2
15:39 44.3 °F 40.7 °F 29.76 in WNW 2.0 mph 3.0 mph 87% 0.00 in 121.00 W/m2
15:45 44.4 °F 40.8 °F 29.76 in WNW 1.0 mph 3.0 mph 87% 0.00 in 113.00 W/m2
15:49 44.5 °F 41.2 °F 29.76 in WNW 1.0 mph 2.0 mph 88% 0.00 in 107.00 W/m2
15:54 44.6 °F 41.3 °F 29.76 in WNW 2.0 mph 4.0 mph 88% 0.00 in 109.00 W/m2
15:59 44.5 °F 40.9 °F 29.76 in West 4.0 mph 5.0 mph 87% 0.00 in 98.00 W/m2
16:04 44.5 °F 40.9 °F 29.76 in West 3.0 mph 5.0 mph 87% 0.00 in 113.00 W/m2
16:09 44.5 °F 40.9 °F 29.76 in West 2.0 mph 5.0 mph 87% 0.00 in 114.00 W/m2
16:14 44.5 °F 40.9 °F 29.76 in West 4.0 mph 5.0 mph 87% 0.00 in 91.00 W/m2
16:19 44.4 °F 40.8 °F 29.76 in West 4.0 mph 5.0 mph 87% 0.00 in 88.00 W/m2
16:24 44.3 °F 40.7 °F 29.76 in West 3.0 mph 5.0 mph 87% 0.00 in 84.00 W/m2
16:29 44.3 °F 40.7 °F 29.76 in West 1.0 mph 4.0 mph 87% 0.00 in 79.00 W/m2
16:34 44.3 °F 40.7 °F 29.76 in West 4.0 mph 4.0 mph 87% 0.00 in 76.00 W/m2
16:39 44.2 °F 40.6 °F 29.76 in West 2.0 mph 4.0 mph 87% 0.00 in 74.00 W/m2
16:44 44.1 °F 40.5 °F 29.76 in West 1.0 mph 5.0 mph 87% 0.00 in 74.00 W/m2
16:49 44.1 °F 40.8 °F 29.76 in West 3.0 mph 5.0 mph 88% 0.00 in 81.00 W/m2
16:55 43.8 °F 40.5 °F 29.76 in West 2.0 mph 4.0 mph 88% 0.00 in 107.00 W/m2
17:00 44.0 °F 41.0 °F 29.76 in West 3.0 mph 3.0 mph 89% 0.00 in 118.00 W/m2
17:05 44.1 °F 41.1 °F 29.76 in West 2.0 mph 4.0 mph 89% 0.00 in 162.00 W/m2
17:10 44.1 °F 40.8 °F 29.76 in West 2.0 mph 4.0 mph 88% 0.00 in 155.00 W/m2
17:15 44.2 °F 41.2 °F 29.76 in West 2.0 mph 4.0 mph 89% 0.00 in 137.00 W/m2
17:19 44.3 °F 41.0 °F 29.76 in West 2.0 mph 4.0 mph 88% 0.00 in 118.00 W/m2
17:24 44.5 °F 41.2 °F 29.76 in West 1.0 mph 4.0 mph 88% 0.00 in 109.00 W/m2
17:29 44.5 °F 41.2 °F 29.76 in Calm   3.0 mph 88% 0.00 in 121.00 W/m2
17:34 44.6 °F 41.3 °F 29.75 in West 2.0 mph 4.0 mph 88% 0.00 in 116.00 W/m2
17:40 44.7 °F 41.4 °F 29.75 in West 1.0 mph 4.0 mph 88% 0.00 in 104.00 W/m2
17:44 44.6 °F 41.3 °F 29.76 in Calm   3.0 mph 88% 0.00 in 113.00 W/m2
17:49 44.7 °F 41.4 °F 29.76 in Calm   3.0 mph 88% 0.00 in 113.00 W/m2
17:54 44.7 °F 41.4 °F 29.76 in Calm   2.0 mph 88% 0.00 in 113.00 W/m2
18:00 44.8 °F 41.5 °F 29.75 in West 2.0 mph 3.0 mph 88% 0.00 in 105.00 W/m2
18:04 44.8 °F 41.2 °F 29.76 in West 3.0 mph 3.0 mph 87% 0.00 in 98.00 W/m2
18:09 44.7 °F 41.1 °F 29.76 in West 2.0 mph 3.0 mph 87% 0.00 in 83.00 W/m2
18:14 44.7 °F 41.1 °F 29.76 in West 3.0 mph 4.0 mph 87% 0.00 in 79.00 W/m2
18:19 44.7 °F 41.1 °F 29.76 in West 1.0 mph 4.0 mph 87% 0.00 in 77.00 W/m2
18:24 44.7 °F 41.1 °F 29.76 in Calm   3.0 mph 87% 0.00 in 128.00 W/m2
18:29 44.7 °F 41.1 °F 29.76 in Calm   3.0 mph 87% 0.00 in 95.00 W/m2
18:34 44.8 °F 41.2 °F 29.75 in Calm   2.0 mph 87% 0.00 in 90.00 W/m2
18:39 44.8 °F 41.2 °F 29.75 in West 2.0 mph 3.0 mph 87% 0.00 in 93.00 W/m2
18:44 44.9 °F 41.3 °F 29.75 in Calm   4.0 mph 87% 0.00 in 114.00 W/m2
18:49 45.1 °F 41.5 °F 29.75 in West 2.0 mph 4.0 mph 87% 0.00 in 190.00 W/m2
18:54 45.2 °F 41.6 °F 29.75 in West 4.0 mph 4.0 mph 87% 0.00 in 174.00 W/m2
19:00 45.4 °F 41.8 °F 29.75 in West 2.0 mph 4.0 mph 87% 0.00 in 179.00 W/m2
19:05 45.4 °F 41.8 °F 29.75 in West 2.0 mph 4.0 mph 87% 0.00 in 155.00 W/m2
19:09 45.6 °F 42.0 °F 29.75 in West 3.0 mph 4.0 mph 87% 0.00 in 130.00 W/m2
19:14 45.6 °F 41.7 °F 29.75 in Calm   4.0 mph 86% 0.00 in 174.00 W/m2
19:20 46.4 °F 42.7 °F 29.75 in Calm   3.0 mph 87% 0.00 in 193.00 W/m2
19:24 46.7 °F 42.4 °F 29.75 in Calm   3.0 mph 85% 0.00 in 158.00 W/m2
19:29 47.0 °F 42.4 °F 29.75 in West 1.0 mph 2.0 mph 84% 0.00 in 141.00 W/m2
19:35 47.2 °F 42.3 °F 29.75 in West 3.0 mph 3.0 mph 83% 0.00 in 98.00 W/m2
19:39 47.0 °F 42.1 °F 29.75 in West 4.0 mph 4.0 mph 83% 0.00 in 83.00 W/m2
19:45 46.9 °F 42.0 °F 29.75 in West 3.0 mph 4.0 mph 83% 0.00 in 49.00 W/m2
19:49 46.4 °F 41.2 °F 29.75 in West 3.0 mph 4.0 mph 82% 0.00 in 49.00 W/m2
19:54 46.0 °F 41.4 °F 29.75 in West 2.0 mph 5.0 mph 84% 0.00 in 47.00 W/m2
19:59 45.9 °F 41.3 °F 29.75 in West 2.0 mph 5.0 mph 84% 0.00 in 32.00 W/m2
20:04 45.6 °F 41.4 °F 29.76 in West 3.0 mph 4.0 mph 85% 0.00 in 25.00 W/m2
20:09 45.1 °F 40.9 °F 29.76 in West 3.0 mph 4.0 mph 85% 0.00 in 19.00 W/m2
20:14 44.6 °F 40.7 °F 29.76 in West 3.0 mph 4.0 mph 86% 0.00 in 16.00 W/m2
20:19 44.2 °F 40.3 °F 29.76 in West 4.0 mph 4.0 mph 86% 0.00 in 14.00 W/m2
20:24 43.8 °F 40.2 °F 29.76 in West 2.0 mph 4.0 mph 87% 0.00 in 11.00 W/m2
20:29 43.5 °F 39.9 °F 29.76 in West 2.0 mph 4.0 mph 87% 0.00 in 7.00 W/m2
20:34 43.3 °F 40.0 °F 29.76 in West 2.0 mph 3.0 mph 88% 0.00 in 5.00 W/m2
20:39 43.1 °F 39.8 °F 29.76 in Calm   2.0 mph 88% 0.00 in 0.00 W/m2
20:44 42.9 °F 39.6 °F 29.76 in Calm   2.0 mph 88% 0.00 in 0.00 W/m2
20:49 42.8 °F 39.8 °F 29.76 in Calm   2.0 mph 89% 0.00 in 0.00 W/m2
20:54 42.6 °F 39.6 °F 29.76 in Calm     89% 0.00 in 0.00 W/m2
21:00 42.5 °F 39.8 °F 29.76 in Calm   1.0 mph 90% 0.00 in 0.00 W/m2
21:05 42.3 °F 39.6 °F 29.77 in Calm   1.0 mph 90% 0.00 in 0.00 W/m2
21:10 42.2 °F 39.5 °F 29.77 in Calm   1.0 mph 90% 0.00 in 0.00 W/m2
21:15 42.0 °F 39.3 °F 29.77 in Calm   1.0 mph 90% 0.00 in 0.00 W/m2
21:19 41.8 °F 39.1 °F 29.77 in West 1.0 mph 1.0 mph 90% 0.00 in 0.00 W/m2
21:25 41.6 °F 39.2 °F 29.77 in West 1.0 mph 2.0 mph 91% 0.00 in 0.00 W/m2
21:30 41.4 °F 39.0 °F 29.77 in West 1.0 mph 2.0 mph 91% 0.00 in 0.00 W/m2
21:35 41.4 °F 39.0 °F 29.77 in Calm   2.0 mph 91% 0.00 in 0.00 W/m2
21:39 41.4 °F 39.3 °F 29.78 in Calm   1.0 mph 92% 0.00 in 0.00 W/m2
21:44 41.5 °F 39.3 °F 29.78 in Calm     92% 0.00 in 0.00 W/m2
21:49 41.6 °F 39.7 °F 29.78 in Calm     93% 0.00 in 0.00 W/m2
21:55 41.7 °F 39.8 °F 29.78 in Calm     93% 0.00 in 0.00 W/m2
21:59 41.7 °F 39.8 °F 29.78 in Calm     93% 0.00 in 0.00 W/m2
22:04 41.3 °F 39.2 °F 29.79 in Calm   1.0 mph 92% 0.00 in 0.00 W/m2
22:09 41.3 °F 39.4 °F 29.79 in West 2.0 mph 2.0 mph 93% 0.00 in 0.00 W/m2
22:14 41.1 °F 39.2 °F 29.79 in West 1.0 mph 2.0 mph 93% 0.00 in 0.00 W/m2
22:19 41.1 °F 39.2 °F 29.79 in West 1.0 mph 2.0 mph 93% 0.00 in 0.00 W/m2
22:24 41.2 °F 39.3 °F 29.79 in Calm   1.0 mph 93% 0.00 in 0.00 W/m2
22:29 41.3 °F 39.4 °F 29.79 in Calm   1.0 mph 93% 0.00 in 0.00 W/m2
22:34 41.0 °F 39.1 °F 29.79 in WNW 3.0 mph 5.0 mph 93% 0.00 in 0.00 W/m2
22:39 40.4 °F 38.3 °F 29.80 in WNW 3.0 mph 5.0 mph 92% 0.00 in 0.00 W/m2
22:44 40.1 °F 38.2 °F 29.80 in WNW 3.0 mph 4.0 mph 93% 0.00 in 0.00 W/m2
22:49 39.8 °F 37.9 °F 29.80 in WNW 3.0 mph 5.0 mph 93% 0.00 in 0.00 W/m2
22:54 39.0 °F 36.9 °F 29.80 in WNW 3.0 mph 5.0 mph 92% 0.00 in 0.00 W/m2
23:00 38.9 °F 37.0 °F 29.80 in WNW 2.0 mph 4.0 mph 93% 0.00 in 0.00 W/m2
23:05 39.0 °F 37.4 °F 29.80 in WNW 3.0 mph 4.0 mph 94% 0.00 in 0.00 W/m2
23:10 39.3 °F 37.7 °F 29.80 in WNW 2.0 mph 3.0 mph 94% 0.00 in 0.00 W/m2
23:15 39.6 °F 38.0 °F 29.80 in WNW 2.0 mph 3.0 mph 94% 0.00 in 0.00 W/m2
23:20 39.8 °F 38.2 °F 29.81 in WNW 2.0 mph 3.0 mph 94% 0.00 in 0.00 W/m2
23:24 39.9 °F 38.3 °F 29.81 in WNW 4.0 mph 4.0 mph 94% 0.00 in 0.00 W/m2
23:30 39.8 °F 38.2 °F 29.81 in WNW 3.0 mph 4.0 mph 94% 0.00 in 0.00 W/m2
23:35 39.8 °F 38.2 °F 29.81 in WNW 3.0 mph 4.0 mph 94% 0.00 in 0.00 W/m2
23:40 39.7 °F 38.1 °F 29.81 in WNW 2.0 mph 4.0 mph 94% 0.00 in 0.00 W/m2
23:45 39.7 °F 38.1 °F 29.81 in WNW 2.0 mph 4.0 mph 94% 0.00 in 0.00 W/m2
23:49 39.7 °F 38.1 °F 29.81 in WNW 1.0 mph 3.0 mph 94% 0.00 in 0.00 W/m2
23:54 39.5 °F 37.9 °F 29.81 in WNW 1.0 mph 3.0 mph 94% 0.00 in 0.00 W/m2
23:59 39.1 °F 37.5 °F 29.81 in WNW 1.0 mph 3.0 mph 94% 0.00 in 0.00 W/m2
Bismarck, North Dakota, USA
Compliments of Weather Underground - 4 mb